Flag for U.S.A. Weather past 2 weeks in Cheyenne, Wyoming, U.S.A.

Now
57 °F

Mostly cloudy.


Feels Like: 55 °F
Forecast: 56 / 81 °F
Wind: 10 mph from West

Location: Cheyenne Airport

Current Time: Aug 28, 2015 at 4:00:12 AM

Latest Report: Aug 28, 2015 at 2:53 AM


Visibility: 10 mi

Pressure: 29.99 "Hg (24.05 "Hg at 1855m altitude)

Humidity: 90%

Dew point: 54 °F

Location of CheyenneLocation

Historic Weather in Cheyenne — Graph

°F

Cheyenne temperature yesterday

Maximum temperature yesterday: 76 °F (at 12:53 PM)
Minimum temperature yesterday: 59 °F (at 10:53 PM)
Average temperature yesterday: 69 °F

Past Weeks' High & Low Weather Summary

 TemperatureHumidityPressure
High93 °F (Aug 25, 3:53 PM)100% (Aug 17, 7:53 AM)30.22 "Hg (Aug 17, 7:53 AM)
Low39 °F (Aug 23, 5:53 AM)9% (Aug 24, 2:53 PM)29.60 "Hg (Aug 21, 5:53 PM)
Average67 °F49%29.95 "Hg
* Reported Aug 13 2:53 AM — Aug 28 2:53 AM, Cheyenne, Weather by CustomWeather, © 2015

Note: Actual official high and low records may vary slightly from our data, if they occured in-between our weather recording intervals... More about our weather records

Advertising

Cheyenne weather history for previous 24 hours

 ConditionsComfort  
Time TempWeatherWind HumidityBarometerVisibility
2:53 AM
Fri, Aug 28
57 °FMostly cloudy.10 mph90%29.99 "Hg10 mi
1:53 AM58 °FOvercast.No wind87%30.01 "Hg10 mi
12:53 AM58 °FThundershowers. Fog.12 mph87%30.01 "Hg6 mi
11:53 PM
Thu, Aug 27
62 °FPassing clouds.3 mph62%29.97 "Hg10 mi
10:53 PM59 °FPassing clouds.7 mph72%29.98 "Hg10 mi
9:53 PM62 °FPassing clouds.7 mph65%29.97 "Hg10 mi
8:53 PM65 °FClear.No wind59%29.95 "Hg10 mi
7:53 PM69 °FPartly sunny.5 mph49%29.94 "Hg10 mi
6:53 PM72 °FSunny.12 mph44%29.93 "Hg10 mi
5:53 PM73 °FPartly sunny.14 mph41%29.93 "Hg10 mi
4:53 PM74 °FPartly sunny.15 mph38%29.92 "Hg10 mi
3:53 PM74 °FMostly cloudy.15 mph40%29.93 "Hg10 mi
2:53 PM74 °FPartly sunny.15 mph40%29.93 "Hg10 mi
1:53 PM76 °FPartly sunny.15 mph37%29.91 "Hg10 mi
12:53 PM76 °FScattered clouds.13 mph37%29.92 "Hg10 mi
11:53 AM75 °FScattered clouds.18 mph40%29.93 "Hg10 mi
10:53 AM73 °FPartly sunny.21 mph41%29.94 "Hg10 mi
9:53 AM73 °FSunny.18 mph46%29.94 "Hg10 mi
8:53 AM68 °FSunny.16 mph57%29.94 "Hg10 mi
7:53 AM66 °FPassing clouds.15 mph59%29.93 "Hg10 mi
6:53 AM65 °FOvercast.22 mph59%29.92 "Hg10 mi
5:53 AM65 °FClear.15 mph59%29.91 "Hg10 mi
4:53 AM66 °FClear.15 mph56%29.92 "Hg10 mi
Weather by CustomWeather, © 2015

See weather overviewHow to use our weather pages